Home > Weather > Namur > Past weeks

Flag for Belgium Weather for the Past 2 Weeks in Namur, Belgium

Now
52 °F

Passing clouds.


Feels Like: 47 °F
Forecast: 44 / 50 °F
Wind: 16 mph from South

Location: Charleroi / Gosselies

Current Time: Feb 7, 2016 at 3:12:22 AM

Latest Report: Feb 7, 2016 at 1:50 AM


Visibility: N/A

Pressure: 29.45 "Hg

Humidity: 58%

Dew point: 37 °F

Location of NamurLocation

Historic Weather in Namur — Graph

°F

Namur Temperature Yesterday

Maximum temperature yesterday: 54 °F (at 9:20 PM)
Minimum temperature yesterday: 45 °F (at 4:20 AM)
Average temperature yesterday: 49 °F

High & Low Weather Summary for the Past Weeks

 TemperatureHumidityPressure
High57 °F (Jan 25, 1:50 PM)100% (Jan 23, 1:50 AM)30.54 "Hg (Jan 23, 1:50 AM)
Low36 °F (Feb 4, 1:20 AM)41% (Jan 25, 1:50 PM)29.45 "Hg (Feb 7, 1:20 AM)
Average45 °F86%30.15 "Hg
* Reported Jan 23 1:50 AM — Feb 7 1:20 AM, Namur, Weather by CustomWeather, © 2016

Note: Actual official high and low records may vary slightly from our data, if they occured in-between our weather recording intervals... More about our weather records

Advertising

Namur Weather History for the Previous 24 Hours

 ConditionsComfort  
Time TempWeatherWind HumidityBarometerVisibility
1:20 AM
Sun, Feb 7
52 °FClear.18 mph58%29.45 "Hg10 mi
12:50 AM52 °FClear.18 mph58%29.47 "Hg10 mi
11:50 PM
Sat, Feb 6
52 °FClear.18 mph58%29.47 "Hg10 mi
10:50 PM52 °FClear.24 mph62%29.47 "Hg10 mi
9:50 PM54 °FPassing clouds.20 mph58%29.50 "HgN/A
9:20 PM54 °FPassing clouds.17 mph54%29.50 "HgN/A
8:50 PM52 °FPassing clouds.17 mph62%29.53 "HgN/A
8:20 PM52 °FClear.16 mph62%29.56 "Hg10 mi
7:50 PM52 °FPassing clouds.13 mph62%29.56 "HgN/A
7:20 PM52 °FClear.13 mph62%29.59 "Hg10 mi
6:50 PM52 °FClear.16 mph62%29.62 "Hg10 mi
6:20 PM52 °FPassing clouds.14 mph62%29.62 "HgN/A
5:50 PM52 °FPassing clouds.13 mph62%29.65 "HgN/A
5:20 PM50 °FSunny.12 mph71%29.65 "Hg10 mi
4:50 PM50 °FSunny.14 mph71%29.68 "Hg10 mi
4:20 PM50 °FPassing clouds.16 mph71%29.68 "HgN/A
3:50 PM50 °FPassing clouds.15 mph71%29.71 "HgN/A
3:20 PM50 °FPassing clouds.17 mph71%29.71 "HgN/A
2:50 PM50 °FPassing clouds.23 mph71%29.74 "HgN/A
2:20 PM48 °FPartly sunny.21 mph76%29.77 "HgN/A
1:50 PM48 °FPartly sunny.20 mph76%29.77 "HgN/A
1:20 PM48 °FPartly sunny.23 mph82%29.80 "HgN/A
12:50 PM48 °FBroken clouds.21 mph76%29.80 "HgN/A
12:20 PM48 °FPartly sunny.21 mph76%29.83 "HgN/A
11:50 AM46 °FPartly sunny.18 mph82%29.86 "HgN/A
11:20 AM46 °FPartly sunny.16 mph82%29.86 "HgN/A
10:50 AM46 °FBroken clouds.17 mph82%29.86 "HgN/A
10:20 AM46 °FBroken clouds.14 mph82%29.89 "HgN/A
9:50 AM46 °FPartly sunny.18 mph82%29.89 "HgN/A
9:20 AM46 °FPartly sunny.14 mph82%29.89 "HgN/A
8:50 AM46 °FBroken clouds.16 mph82%29.89 "HgN/A
8:20 AM46 °FPartly sunny.16 mph87%29.89 "HgN/A
7:50 AM46 °FPassing clouds.16 mph87%29.89 "HgN/A
7:20 AM46 °FPassing clouds.17 mph87%29.89 "HgN/A
6:50 AM46 °FPassing clouds.15 mph87%29.89 "HgN/A
6:20 AM46 °FPassing clouds.14 mph87%29.89 "HgN/A
5:50 AM46 °FPassing clouds.12 mph87%29.92 "HgN/A
4:50 AM45 °FPartly cloudy.14 mph87%29.92 "HgN/A
4:20 AM45 °FPassing clouds.13 mph87%29.95 "HgN/A
3:50 AM46 °FPassing clouds.13 mph87%29.95 "HgN/A
Weather by CustomWeather, © 2016

See weather overviewHow to use our weather pages